Back to catalog

STARLINK-4334

AliveCommunicationsSSO
NORAD 53665·PAYLOAD·🇺🇸 United States

Launched Aug 31, 2022 from Vandenberg Space Force Base

Loading…

Next Passes (next 24 hours)

TLE

FreshSource: CelesTrak SupGP

Epoch: Sep 14, 2026, 20:54 UTC

1 53665C 22105T   26257.87131944  .00568960  00000+0  13797-1 0  2572
2 53665  97.5168 146.2567 0001535  94.2149 320.8168 15.40813418    11

Track STARLINK-4334 in real time with AllMySat

Download on the App Store